Theta_e
320 323 324 323 324 324 326 329 330 336 341 350 352 351 353 356 355 356 355 354 351 349 345 343 343 343 343 344 346 345 346 346 346 344 343 345 347 347 349 349 352 354 353 354
321 321 322 323 322 323 323 330 334 334 337 345 351 351 349 357 356 355 354 353 351 348 347 344 343 344 345 345 346 347 346 348 348 343 342 344 346 346 348 351 354 354 354 355
323 323 321 320 321 322 323 323 326 333 335 336 346 352 351 351 356 355 353 351 350 348 348 347 345 345 345 347 347 348 348 348 348 342 343 346 347 349 351 352 351 353 354 355
322 322 322 321 321 321 322 322 322 324 331 340 340 352 351 349 356 356 356 353 351 349 347 347 347 346 346 347 348 348 349 349 348 345 342 345 347 346 346 349 349 352 355 354
326 325 325 325 323 322 323 322 321 321 323 333 339 346 348 349 351 357 356 355 352 350 348 348 348 347 346 346 348 349 350 350 347 347 343 344 344 341 344 347 350 352 356 355
323 323 323 325 325 324 323 323 322 322 322 323 332 342 347 348 350 349 353 353 354 353 350 348 347 348 348 347 347 349 350 351 349 347 347 345 343 341 344 347 348 349 350 353
319 320 323 323 326 327 325 325 328 327 325 323 325 331 341 342 344 347 349 352 353 353 353 351 349 348 349 349 347 347 350 353 351 349 350 347 346 346 347 350 348 347 346 348
315 316 318 320 323 327 326 326 331 333 328 324 324 326 331 336 339 341 346 348 351 353 353 353 352 349 349 349 348 348 349 352 352 350 351 351 349 348 348 350 349 348 346 346
315 314 318 318 321 324 327 328 327 330 330 330 326 324 324 331 336 338 340 345 348 352 353 354 353 351 349 350 350 350 351 351 352 350 351 353 351 350 349 349 350 349 349 347
315 311 312 314 315 320 325 326 329 328 333 334 331 330 326 329 336 337 338 340 345 350 353 354 353 352 350 350 350 350 350 352 352 350 350 351 351 351 350 350 351 351 350 351
312 311 312 310 311 316 322 325 326 328 329 333 334 331 329 328 329 335 337 339 341 348 352 353 353 352 351 350 350 351 351 351 352 352 351 350 350 350 352 352 352 353 353 352
312 313 315 311 310 311 313 322 325 329 331 331 332 333 329 329 329 330 334 338 340 344 349 352 352 352 352 351 350 350 351 351 352 352 353 351 351 351 351 353 352 353 354 354
312 312 313 310 310 311 312 314 320 324 328 332 334 334 331 331 332 331 331 333 339 341 345 350 351 352 352 352 351 350 350 350 351 351 351 351 351 351 351 353 353 354 354 355
309 309 311 311 311 310 314 316 318 323 327 329 330 331 333 332 331 332 333 334 334 337 342 345 349 351 352 352 355 353 351 350 350 351 351 352 352 352 352 352 353 354 354 355
312 315 311 310 310 310 310 309 314 320 323 327 327 329 330 334 332 332 333 333 333 334 338 345 347 350 355 355 356 355 352 352 351 352 351 353 354 353 353 354 354 354 355 356
312 314 311 311 310 310 309 308 309 312 317 321 323 326 327 332 334 333 332 334 335 339 338 336 343 347 351 352 356 357 356 354 353 355 354 354 356 355 355 355 356 356 356 356
313 314 313 311 309 308 309 309 311 311 315 319 323 325 329 334 336 337 337 337 342 344 345 347 344 343 346 349 353 355 357 355 354 356 356 356 357 358 357 357 358 357 357 357
313 314 314 312 309 312 310 310 311 313 314 318 321 324 327 335 338 349 348 348 349 348 349 349 349 348 342 345 348 352 353 356 356 358 358 358 359 359 359 359 359 359 358 358
311 313 313 314 312 311 311 313 318 314 316 318 324 325 326 331 338 351 347 346 347 349 350 351 350 349 349 343 345 350 352 355 357 358 359 359 359 359 359 359 359 359 359 359
310 313 315 313 313 314 315 311 310 321 325 328 330 332 330 334 343 344 343 342 343 346 348 350 352 354 352 351 344 348 352 354 358 358 359 359 360 360 360 360 360 360 359 359
315 316 315 313 313 312 310 310 310 326 331 325 326 330 341 341 340 334 331 334 336 341 346 351 353 354 352 349 344 352 354 355 357 356 356 358 359 360 360 361 361 360 359 358
313 314 314 313 314 314 311 310 318 325 319 318 319 326 328 325 324 323 324 324 328 336 349 354 351 347 345 342 349 357 358 356 357 357 357 359 360 359 359 361 362 361 360 360
314 312 315 313 315 312 307 308 316 316 318 317 318 322 321 320 321 321 322 321 322 326 339 353 354 351 349 350 350 355 358 357 357 358 360 360 360 360 360 362 363 362 362 361
309 306 310 310 311 307 311 312 315 316 315 315 316 316 319 321 321 321 322 323 322 323 325 342 352 357 357 353 353 354 357 359 359 360 361 361 362 361 360 362 362 361 361 361
308 309 310 309 307 309 312 311 315 314 314 314 315 316 316 319 321 320 323 324 324 323 324 327 340 349 350 351 353 358 359 358 360 361 361 362 362 361 362 362 357 361 360 360
310 310 311 312 309 309 309 312 313 314 313 313 314 315 317 318 319 321 323 324 324 324 324 326 328 337 343 344 347 349 354 360 356 358 359 360 360 362 362 362 354 353 348 356
Wind_Speed
15 15 19 19 17 16 8 12 16 14 13 14 18 14 14 14 14 15 17 19 21 24 29 32 31 31 28 27 25 25 23 21 21 19 19 17 16 13 10 9 8 8 8 6
11 19 18 15 14 15 16 11 13 9 8 11 18 19 15 16 16 17 17 19 20 22 24 30 33 32 32 30 29 27 26 23 22 20 19 17 15 14 11 9 8 9 10 8
17 5 19 14 15 17 18 18 14 11 4 14 14 16 17 17 14 16 16 18 20 23 25 25 31 33 33 32 31 29 28 26 24 21 19 15 14 11 12 10 10 10 11 10
17 14 6 17 18 17 18 17 14 15 12 12 20 14 21 18 18 17 18 19 21 23 24 24 30 34 35 34 32 30 28 28 26 24 23 21 19 17 16 14 12 9 12 12
11 13 19 18 13 20 16 12 13 14 17 16 15 12 17 24 19 19 19 20 21 23 25 26 30 35 35 34 33 32 29 28 28 27 25 25 22 18 16 15 13 11 10 12
16 0 7 20 19 11 4 15 13 14 14 18 23 18 18 20 22 21 21 21 21 23 25 25 32 33 34 34 35 33 33 31 30 29 29 25 24 21 19 18 16 15 14 13
13 15 12 11 13 21 17 13 9 12 14 20 20 20 19 13 19 19 19 20 21 22 23 23 25 31 34 37 37 36 34 35 33 31 29 29 26 25 21 18 19 16 16 15
10 13 15 1 17 13 23 21 12 20 14 20 20 21 22 26 18 12 17 16 20 21 22 24 25 32 36 38 38 37 36 35 36 35 32 30 30 27 26 23 20 19 17 16
7 10 3 3 4 9 18 22 25 23 16 13 17 18 18 22 24 26 14 19 17 20 22 25 25 33 36 38 40 40 37 37 36 36 33 32 31 30 27 25 22 21 18 15
3 7 4 2 8 16 18 16 18 17 23 23 17 19 16 21 21 23 24 21 18 18 20 21 23 32 36 38 40 40 38 38 38 36 35 34 33 31 30 25 24 21 21 19
2 3 8 3 11 17 16 19 15 16 19 18 19 16 13 16 22 22 24 22 22 18 20 22 23 33 37 37 38 41 40 38 37 38 37 35 35 33 30 29 27 24 22 20
1 4 8 12 10 11 11 15 18 17 24 20 19 10 15 5 14 21 24 19 22 19 20 21 23 29 32 36 38 40 41 40 38 38 37 37 35 33 32 30 29 25 24 23
4 4 6 8 17 16 12 20 15 16 21 23 20 19 17 12 5 11 18 22 18 19 21 20 19 20 29 36 38 40 40 41 39 37 37 37 35 34 33 31 30 27 25 25
2 11 12 12 14 11 10 12 14 17 17 20 23 21 17 22 16 9 11 12 16 20 14 17 18 19 27 32 34 36 40 41 40 38 38 37 37 37 35 34 31 29 28 26
8 10 14 17 16 16 18 19 19 20 18 22 21 24 25 19 21 15 8 6 2 7 14 15 17 17 20 27 30 35 37 37 39 38 40 38 38 37 36 33 32 32 30 28
15 13 13 17 16 18 23 23 26 25 25 25 24 29 29 25 20 23 22 17 9 9 7 9 14 17 18 28 31 34 36 38 39 37 40 37 36 36 36 34 33 32 31 29
15 10 12 18 18 20 23 21 27 30 27 27 25 25 27 14 14 19 16 14 10 9 8 9 11 14 20 28 32 35 39 38 39 36 36 36 36 36 36 36 34 33 32 29
14 14 11 14 16 19 22 24 27 31 30 28 26 27 33 9 8 2 2 7 8 8 10 11 11 14 22 26 30 32 33 36 35 34 36 36 35 35 34 34 35 33 32 31
20 12 7 10 12 17 27 24 22 30 30 24 30 30 35 17 13 11 1 4 8 10 12 14 18 22 21 23 28 31 32 35 34 36 36 37 37 35 35 34 33 33 31 29
23 19 11 10 10 15 8 18 29 34 18 17 13 17 23 18 16 9 8 9 10 11 14 17 21 23 25 26 29 31 34 35 36 38 40 38 37 36 35 34 34 33 31 31
14 15 15 15 13 13 14 19 23 9 10 12 4 5 10 17 2 7 9 10 10 12 18 21 21 23 27 27 33 30 33 36 40 35 33 33 34 34 32 31 31 32 32 28
7 6 7 9 9 15 8 16 6 4 11 7 2 7 11 10 9 10 11 11 13 15 16 13 10 16 21 27 30 28 31 28 29 31 32 32 33 32 30 30 29 29 28 28
2 4 2 5 4 4 12 17 11 8 4 3 7 10 11 12 13 11 12 13 13 15 18 19 4 6 12 21 24 23 21 22 26 26 28 30 30 30 27 29 28 27 27 26
2 7 4 3 6 10 10 11 12 3 3 5 8 11 11 13 13 13 15 13 13 16 18 20 17 14 10 11 17 20 22 23 25 25 25 25 25 26 27 26 27 27 27 28
2 7 6 5 5 12 7 12 11 9 8 9 9 11 12 12 14 14 13 12 11 16 23 23 18 16 17 20 18 12 14 21 23 23 22 21 20 22 21 19 16 23 22 24
7 5 4 2 11 5 10 12 12 8 10 9 9 12 12 12 14 12 11 13 14 17 22 23 25 23 22 22 21 18 12 7 18 19 21 20 18 19 17 18 5 7 9 8
Wind_Direction
196 207 214 213 217 242 299 234 232 199 230 203 224 220 171 179 189 176 181 185 188 192 188 188 193 192 192 190 190 191 192 193 190 191 194 194 192 190 196 204 203 199 189 188
183 225 219 228 216 231 235 240 230 255 242 252 225 229 217 178 193 185 187 188 193 190 187 190 193 195 196 192 195 193 194 196 196 196 196 198 200 196 197 199 189 184 188 187
213 225 215 205 225 216 230 234 235 252 171 258 260 238 227 183 198 188 192 192 193 193 189 190 193 197 198 195 196 197 195 197 199 199 196 193 195 201 198 194 192 195 191 191
229 214 204 198 223 212 232 221 243 253 256 239 213 237 210 210 198 199 195 193 194 194 197 191 193 198 199 198 197 199 198 198 200 197 198 198 197 200 201 198 194 189 193 196
207 220 227 222 214 221 241 245 234 238 248 258 231 238 240 201 201 202 205 198 195 197 194 195 197 198 198 197 198 199 199 201 201 199 203 202 210 209 205 205 196 199 196 198
263 336 274 232 224 204 248 223 223 233 236 240 232 237 226 228 204 202 200 203 198 195 199 199 197 197 199 197 199 197 196 201 201 201 205 206 208 214 210 207 206 207 206 204
209 234 225 251 219 210 210 193 206 219 219 236 219 231 233 230 222 214 208 201 202 200 197 197 196 196 197 199 199 199 197 200 200 202 205 208 211 209 211 208 212 214 213 210
224 195 204 6 242 215 213 214 228 217 214 229 217 234 226 232 260 263 218 214 200 204 198 199 198 197 197 198 198 201 198 201 200 202 205 206 209 213 214 214 220 218 222 220
218 232 130 244 275 253 221 219 227 259 268 251 219 216 235 218 222 232 230 232 202 200 203 200 198 199 198 198 199 199 198 199 203 204 204 205 207 213 216 219 221 224 225 227
100 264 182 251 265 236 247 230 215 231 241 246 230 241 214 211 222 222 224 220 219 200 204 202 201 200 200 201 200 201 202 201 199 203 205 208 210 213 219 220 221 222 226 226
293 261 150 269 212 221 216 242 255 249 224 238 234 237 224 223 216 222 225 223 217 203 202 204 202 204 202 199 197 199 201 202 201 201 205 207 210 213 216 220 222 223 224 224
148 312 259 251 266 281 284 279 248 232 225 236 261 252 200 219 236 221 231 219 217 203 204 205 203 202 201 200 199 198 199 199 201 200 201 205 207 210 214 217 221 219 220 222
178 213 274 227 213 227 237 244 241 263 272 254 228 228 253 284 257 249 225 228 212 217 209 206 202 199 204 202 202 200 200 200 199 199 200 204 207 208 210 213 216 217 217 220
238 265 248 274 318 346 285 278 280 248 249 250 246 260 241 230 250 239 227 246 236 218 214 217 212 207 202 205 202 203 202 202 199 198 200 200 202 206 209 210 210 211 214 217
236 241 248 256 264 275 270 270 259 255 255 256 263 254 244 242 246 250 224 166 202 225 221 210 215 209 202 202 202 202 206 202 201 196 201 201 201 203 205 207 207 208 211 215
225 255 264 268 261 257 258 260 264 250 249 255 256 265 277 250 235 248 251 256 251 250 223 227 220 218 210 206 204 198 201 201 200 198 201 200 199 199 200 202 202 204 209 213
212 238 245 257 261 254 249 251 257 258 240 242 243 242 257 251 244 257 262 256 261 262 260 253 239 228 218 211 206 202 200 197 198 198 198 198 197 198 199 199 200 202 207 211
224 224 245 257 274 263 259 254 259 253 242 235 242 247 250 238 272 274 271 281 281 279 275 267 254 242 236 221 210 208 200 198 197 197 196 197 196 198 198 198 200 201 206 208
224 220 244 242 248 263 278 272 266 235 231 229 238 226 240 243 243 197 238 323 297 292 287 276 262 253 246 235 216 198 202 197 195 196 198 196 195 197 197 199 199 202 205 207
215 202 214 242 250 260 267 321 319 308 208 199 227 241 227 226 225 205 359 341 329 307 287 277 267 251 236 226 216 200 197 196 198 197 198 195 194 194 196 196 196 199 203 207
199 206 214 231 251 271 289 302 302 245 163 154 159 278 252 226 357 23 4 358 339 320 300 279 264 243 231 218 208 196 194 199 200 197 196 194 195 193 196 196 195 194 200 205
186 185 212 233 244 255 25 307 227 30 82 92 155 111 99 89 71 49 31 15 358 338 326 305 265 216 213 199 196 189 197 196 190 194 192 191 193 193 195 197 197 199 200 204
200 219 281 220 228 345 297 277 321 359 80 58 71 71 85 87 68 46 40 24 12 359 351 354 13 172 180 184 186 182 189 182 188 193 192 191 192 191 193 194 195 197 201 207
218 221 242 268 214 277 267 301 302 338 18 36 51 62 55 63 56 41 42 31 18 14 8 5 44 52 74 150 173 186 181 181 180 187 192 191 195 193 195 195 199 203 204 208
274 291 283 258 270 319 233 316 352 353 33 37 43 46 44 38 38 36 33 30 22 14 15 20 23 62 71 71 72 86 165 181 179 185 185 185 191 191 199 200 207 211 215 214
356 352 341 304 314 318 283 320 347 9 29 27 25 44 48 30 24 19 39 22 24 21 16 24 24 26 52 57 60 65 65 139 178 190 174 173 185 177 194 186 184 238 248 229